This is the latest recevied weather packets stored in our database for station/object K6CEG. If no packets are shown the sender has not sent any weather packets the latest 10 day(s).
| Time | Temp. | Humidity | Pressure | Rain* | Wind** | Luminosity | Snow |
|---|---|---|---|---|---|---|---|
| 1778375332 | 24.44° C | 53% | 1013 hPa | 0 mm | - | 57 W/m² | - |
| 1778375030 | 24.44° C | 51% | 1012.8 hPa | 0 mm | - | 29 W/m² | - |
| 1778374726 | 25° C | 50% | 1012.8 hPa | 0 mm | - | 56 W/m² | - |
| 1778374422 | 25° C | 50% | 1013 hPa | 0 mm | - | 25 W/m² | - |
| 1778374120 | 25° C | 50% | 1012.8 hPa | 0 mm | - | 115 W/m² | - |
| 1778373817 | 25.56° C | 49% | 1012.8 hPa | 0 mm | - | 158 W/m² | - |
| 1778373515 | 25.56° C | 48% | 1012.8 hPa | 0 mm | - | 168 W/m² | - |
| 1778373212 | 26.11° C | 46% | 1012.8 hPa | 0 mm | - | 161 W/m² | - |
| 1778372910 | 26.11° C | 46% | 1012.8 hPa | 0 mm | - | 170 W/m² | - |
| 1778372608 | 26.11° C | 47% | 1012.8 hPa | 0 mm | - | 46 W/m² | - |
| 1778372304 | 26.11° C | 47% | 1012.9 hPa | 0 mm | - | 179 W/m² | - |
| 1778372003 | 26.67° C | 47% | 1012.9 hPa | 0 mm | - | 309 W/m² | - |
| 1778371698 | 26.67° C | 46% | 1012.7 hPa | 0 mm | - | 42 W/m² | - |
| 1778371396 | 26.67° C | 46% | 1012.8 hPa | 0 mm | - | 213 W/m² | - |
| 1778371093 | 26.67° C | 46% | 1012.8 hPa | 0 mm | - | 46 W/m² | - |
| 1778370789 | 27.22° C | 45% | 1012.7 hPa | 0 mm | - | 77 W/m² | - |
| 1778370485 | 26.67° C | 46% | 1012.9 hPa | 0 mm | - | 45 W/m² | - |
| 1778370182 | 27.22° C | 46% | 1012.6 hPa | 0 mm | - | 339 W/m² | - |
| 1778369880 | 27.78° C | 46% | 1012.9 hPa | 0 mm | - | 49 W/m² | - |
| 1778369578 | 27.78° C | 46% | 1012.8 hPa | 0 mm | - | 50 W/m² | - |
| 1778369273 | 27.78° C | 45% | 1012.7 hPa | 0 mm | - | 50 W/m² | - |
| 1778368971 | 27.22° C | 45% | 1012.7 hPa | 0 mm | - | 52 W/m² | - |
| 1778368667 | 27.78° C | 45% | 1012.8 hPa | 0 mm | - | 53 W/m² | - |
| 1778368364 | 27.78° C | 46% | 1012.6 hPa | 0 mm | - | 53 W/m² | - |
| 1778368062 | 27.78° C | 45% | 1013.1 hPa | 0 mm | - | 55 W/m² | - |
* Rain latest hour (hover to see other rain measurements)
** Current wind speed in m/s (hover to see current wind gust speed)